Location: Campagnette
(50.6659°N, 2.1180°E)
Time: 07:11:54
(UTC+00:00)

Daily predictions for brighter satellites

Satellite Brightness Start Highest point End
(mag) Time Altitude Azimuth Time Altitude Azimuth Time Altitude Azimuth
SMAP 4.4 17:40:10 10° S 17:44:37 46° W 17:49:07 10° NNW
Envisat 3.4 17:39:59 10° S 17:45:03 71° WSW 17:50:10 10° NNW
Cosmos 1805 Rocket 4.3 17:42:08 10° SSE 17:45:59 31° E 17:49:49 10° NNE
Cosmos 304 Rocket 4.2 17:41:57 10° SSW 17:46:45 67° WNW 17:51:36 10° NNE
Cosmos 1515 Rocket 4.2 17:43:10 10° NNW 17:47:31 63° W 17:51:48 10° S
Cosmos 1812 4.1 17:45:58 10° NNE 17:48:49 19° ENE 17:51:39 10° ESE
Sich 1 4.0 17:46:05 10° SE 17:49:35 25° E 17:53:04 10° NNE
Cosmos 1939 Rocket 3.4 17:47:15 10° SE 17:51:06 40° ENE 17:55:01 10° N
Cosmos 1802 Rocket 4.3 17:45:15 10° SSE 17:51:13 48° E 17:57:18 10° NNE
Cosmos 1707 Rocket 4.3 17:47:45 10° N 17:51:47 33° ENE 17:55:49 10° SE
CZ-4B R/B 4.4 17:50:57 10° NNW 17:52:34 13° WNW 17:54:12 10° W
Cosmos 1500 Rocket 3.6 17:48:46 10° S 17:53:13 74° E 17:57:42 10° NNE
Cosmos 2369 Rocket 3.9 17:51:19 10° ESE 17:53:19 12° E 17:55:19 10° ENE
Cosmos 1844 Rocket 4.5 17:50:12 10° WSW 17:54:59 28° NW 17:59:49 10° NNE
Lacrosse 5 rocket 1.6 17:50:52 10° WSW 17:55:18 89° ESE 17:59:54 10° ENE
Meteor 1-27 Rocket 4.4 17:51:16 10° N 17:56:11 32° ENE 18:01:07 10° SE
Cosmos 2082 Rocket 2.6 17:51:08 10° NNW 17:56:45 68° WSW 18:02:21 10° SSE
Cosmos 1992 Rocket 4.3 17:51:54 10° S 17:56:51 45° ESE 18:01:50 10° NE
STARLINK-80 3.7 17:58:14 10° SW 18:01:59 54° SSE 18:05:24 12° ENE
Cosmos 1743 Rocket 3.7 18:01:00 10° SSW 18:05:24 79° W 18:09:47 10° N
Cosmos 292 Rocket 4.1 18:02:21 10° S 18:06:55 45° ESE 18:11:29 10° NE
Cosmos 1354 Rocket 4.0 18:03:21 10° NNW 18:08:42 87° ENE 18:13:59 10° SSE
STARLINK-60 3.2 18:06:34 10° WNW 18:09:51 61° N 18:12:25 15° E
Cosmos 1238 Rocket 4.1 18:04:05 10° S 18:10:07 59° E 18:16:39 10° NNE
CZ-2C R/B 4.3 18:05:55 10° ESE 18:10:34 25° ENE 18:15:09 10° N
H-2A R/B 3.0 18:07:45 10° ESE 18:12:13 28° ENE 18:16:45 10° N
Cosmos 1833 Rocket 4.5 18:07:09 10° NW 18:12:16 36° WSW 18:17:21 10° S
Meteor 2-3 Rocket 4.0 18:07:17 10° SSW 18:12:51 74° WNW 18:18:31 10° N
STARLINK-43 3.3 18:11:07 10° WSW 18:14:50 85° NNW 18:17:45 16° ENE
HJ-1C 4.0 18:14:08 10° SE 18:17:09 33° ENE 18:20:10 10° N
SL-27 R/B 3.3 18:14:57 10° N 18:17:54 27° ENE 18:19:54 16° ESE
Cosmos 2016 Rocket 3.9 18:12:26 10° S 18:18:26 63° E 18:24:29 10° NNE
SJ 16-02 3.4 18:26:26 10° NNE 18:27:55 11° NE 18:28:15 11° NE
Ariane Rocket 3.2 18:23:43 10° SE 18:28:36 48° ENE 18:33:30 10° N
YAOGAN 1 2.8 18:25:09 10° S 18:29:28 72° WSW 18:33:49 10° NNW
Cosmos 2297 Rocket 4.3 18:28:47 10° N 18:30:22 11° NNE 18:31:56 10° NNE
CSL-04 Rocket 3.8 18:25:36 10° SSE 18:31:10 82° WSW 18:36:42 10° NNW
SKYMED 2 4.0 18:27:12 10° N 18:31:32 65° WNW 18:35:50 10° SSW
Cosmos 921 Rocket 4.0 18:28:24 10° SSE 18:32:13 28° E 18:35:46 12° NE
STARLINK-61 4.5 18:28:56 10° SSW 18:32:23 30° SE 18:33:58 22° ESE
USA 234 3.6 18:27:26 16° E 18:32:36 55° N 18:38:57 10° WNW
ADEOS Rocket 3.6 18:26:07 10° NNE 18:33:42 60° E 18:41:22 10° S
USA 229 DEB 4.1 18:29:42 10° S 18:35:38 37° ESE 18:40:52 14° ENE
USA 229 4.1 18:29:50 10° S 18:35:44 37° ESE 18:40:55 14° ENE
Cosmos 2278 Rocket 3.3 18:30:28 10° SW 18:35:52 45° NW 18:41:20 10° NNE
Cosmos 2233 Rocket 4.2 18:30:38 10° SSE 18:36:25 46° E 18:42:17 10° NNE
SJ-11-01 4.4 18:33:20 10° SE 18:37:51 51° ENE 18:42:23 10° N
ARGOS 3.7 18:33:11 10° SE 18:38:07 37° ENE 18:43:05 10° N
Cosmos 1633 Rocket 3.2 18:36:33 10° SSE 18:40:42 46° E 18:44:53 10° NNE
Cosmos 1782 4.5 18:37:23 10° NNW 18:41:07 37° W 18:44:49 10° SSW
STARLINK-48 3.5 18:37:48 10° SW 18:41:41 66° SSE 18:43:33 28° E
Cosmos 1666 Rocket 3.6 18:38:20 10° S 18:42:43 59° E 18:47:09 10° NNE
NOSS 3-1 (A) 4.3 18:38:39 10° SSE 18:43:04 25° ESE 18:44:29 22° E
Meteor 1-10 Rocket 4.4 18:38:10 10° NNW 18:43:51 78° W 18:49:25 10° S
Lacrosse 4 Rocket 1.3 18:40:05 10° SSW 18:44:16 72° ESE 18:47:52 14° NE
SJ-6B 3.5 18:45:54 29° ENE 18:46:10 30° ENE 18:49:29 10° N
Cosmos 2227 Rocket 4.3 18:46:08 10° N 18:48:09 12° NNE 18:50:10 10° NE
SL-4 R/B 3.4 18:45:46 10° WNW 18:50:15 41° SSW 18:53:46 14° SSE
Cosmos 44 3.4 18:46:20 10° NNW 18:50:32 45° NE 18:52:10 31° E
SPOT 3 Rocket 4.1 18:50:01 24° ESE 18:52:17 36° ENE 18:57:00 10° N
Cosmos 1633 3.5 18:48:55 10° SSW 18:52:25 50° WNW 18:55:57 10° N
CRYOSAT 2 4.3 18:47:35 10° SSE 18:52:27 73° E 18:57:22 10° N
Cosmos 1862 3.2 18:48:34 10° S 18:52:35 90° W 18:56:36 10° N
Cosmos 724 4.4 18:47:21 10° NW 18:53:03 54° NE 18:56:12 26° ESE
Resurs 01 Rocket 3.3 18:56:16 18° NE 18:56:16 18° NE 18:58:28 10° NNE
Cosmos 2242 Rocket 4.0 18:52:36 10° N 18:56:54 41° ENE 18:58:26 30° ESE
FALCON 9 DEB 3.1 18:54:05 10° WNW 18:57:32 69° NNE 18:58:18 49° ENE
STARLINK-26 3.1 18:57:35 10° WSW 19:01:02 73° SSE 19:01:39 55° E
STARLINK-54 4.4 18:58:41 10° SSW 19:02:15 31° SE 19:02:20 31° SE
STARLINK-25 4.5 19:01:50 10° SSW 19:05:15 31° SSE 19:05:15 31° SSE
STARLINK-71 4.3 19:03:33 10° SSW 19:07:07 34° SE 19:07:07 34° SE
CENTAUR R/B 4.1 19:01:36 10° WNW 19:07:47 31° N 19:12:43 17° NE
STARLINK-79 4.4 19:05:05 10° SSW 19:08:26 32° SSE 19:08:26 32° SSE
Cosmos 1943 Rocket 2.2 19:04:12 10° S 19:09:37 54° ESE 19:13:26 19° NE
STARLINK-78 4.4 19:06:37 10° SSW 19:09:58 33° SSE 19:09:58 33° SSE
STARLINK-29 3.0 19:07:17 10° WNW 19:10:42 71° NNE 19:10:54 68° NE
MOS 1 4.2 19:05:11 10° SSE 19:10:50 79° ENE 19:16:32 10° NNW
STARLINK-75 3.7 19:08:07 10° SW 19:11:02 42° S 19:11:02 42° S
STARLINK-57 4.3 19:08:22 10° SSW 19:11:45 35° SSE 19:11:45 35° SSE
FREGAT/IRIS 4.3 19:14:43 23° N 19:14:43 23° N 19:15:55 10° NNW
ATLAS 3B R/B 4.1 19:07:46 10° WNW 19:13:20 27° N 19:17:39 15° NE
STARLINK-49 4.4 19:09:54 10° SSW 19:13:10 34° SSE 19:13:10 34° SSE
STARLINK-33 3.7 19:10:42 10° SW 19:13:17 41° S 19:13:17 41° S
STARLINK-27 4.4 19:11:35 10° SSW 19:14:49 34° SSE 19:14:49 34° SSE
STARLINK-22 4.2 19:12:43 10° SW 19:15:12 34° S 19:15:12 34° S
STARLINK-66 3.7 19:12:50 10° SW 19:15:23 42° S 19:15:23 42° S
STARLINK-74 4.4 19:13:12 10° SSW 19:16:23 35° SSE 19:16:23 35° SSE
STARLINK-41 4.1 19:14:05 10° SW 19:16:38 36° S 19:16:38 36° S
STARLINK-55 3.7 19:14:30 10° SW 19:17:01 43° SSW 19:17:01 43° SSW
STARLINK-39 4.4 19:14:45 10° SSW 19:17:55 35° SSE 19:17:55 35° SSE
CZ-4 R/B 4.3 19:15:56 10° SW 19:18:59 19° W 19:22:04 10° NW
STARLINK-28 3.7 19:16:05 10° SW 19:18:38 45° SSW 19:18:38 45° SSW
Cosmos 2297 4.2 19:13:59 10° SW 19:19:35 61° NW 19:25:12 10° NNE
STARLINK-52 3.2 19:16:22 10° WNW 19:19:36 70° NNW 19:19:36 70° NNW
STARLINK-31 4.4 19:16:27 10° SW 19:19:33 36° SSE 19:19:33 36° SSE
STARLINK-69 4.3 19:18:07 10° SW 19:21:20 39° S 19:21:20 39° S
Cosmos 1470 Rocket 3.4 19:18:13 10° S 19:22:32 70° E 19:26:54 10° NNE
STARLINK-21 4.4 19:19:43 10° SW 19:22:47 36° S 19:22:47 36° S
Cosmos 1812 3.9 19:21:10 10° NNW 19:24:50 42° W 19:28:30 10° SSW
STARLINK-45 4.2 19:21:30 10° SW 19:24:40 40° S 19:24:40 40° S
Meteor 1-18 Rocket 4.5 19:19:44 10° N 19:25:31 49° ENE 19:26:37 44° ESE
Cosmos 1862 Rocket 3.8 19:22:07 10° NNW 19:26:24 65° W 19:30:42 10° S
STARLINK-70 4.3 19:23:05 10° SW 19:26:09 39° S 19:26:09 39° S
Sich 1 4.5 19:23:04 10° SW 19:27:05 38° WNW 19:31:06 10° N
ARGOS Delta rocket 3.6 19:27:54 58° ENE 19:27:54 58° ENE 19:32:02 10° N
Cosmos 1777 Rocket 4.5 19:22:33 10° NNW 19:27:47 61° WSW 19:32:50 11° S
STARLINK-58 4.4 19:24:34 10° SW 19:26:53 33° SSW 19:26:53 33° SSW
STARLINK-76 4.4 19:24:37 10° SW 19:27:34 37° S 19:27:34 37° S
Cosmos 1898 Rocket 4.1 19:24:44 10° NNW 19:29:10 37° NE 19:29:10 37° NE
STARLINK-62 4.4 19:26:25 10° SW 19:28:42 33° SSW 19:28:42 33° SSW
STARLINK-23 4.4 19:26:15 10° SW 19:29:09 37° S 19:29:09 37° S
Cosmos 1833 4.1 19:25:13 10° NNW 19:31:01 70° ENE 19:32:36 48° SE
STARLINK-34 4.5 19:27:39 10° SW 19:29:53 33° SSW 19:29:53 33° SSW
STARLINK-32 4.5 19:27:54 10° SW 19:30:45 37° S 19:30:45 37° S
Cosmos 2285 Rocket 3.9 19:26:13 10° NNW 19:32:37 89° ENE 19:36:24 26° SSE
Cosmos 44 Rocket 4.3 19:29:04 10° NNW 19:32:57 30° NNE 19:32:57 30° NNE
STARLINK-40 4.5 19:29:30 10° SW 19:32:19 36° S 19:32:19 36° S
Lacrosse 5 rocket 2.5 19:30:38 10° W 19:34:55 41° N 19:35:54 36° NNE
Cosmos 2369 Rocket 2.1 19:30:38 10° SSW 19:36:14 68° ESE 19:38:21 39° NE
Cosmos 1464 Rocket 4.1 19:30:21 10° SSE 19:36:28 53° E 19:42:39 10° NNE
STARLINK-37 4.5 19:32:45 10° SW 19:35:33 38° SSW 19:35:33 38° SSW
NOSS 3-1 (C) 3.2 19:32:40 10° SW 19:38:15 79° SE 19:40:53 37° NE
USA 267 3.7 19:38:57 40° SE 19:38:57 40° SE 19:44:58 10° SSW
STARLINK-80 3.9 19:36:30 10° W 19:39:53 58° NW 19:39:53 58° NW
Cosmos 1703 Rocket 4.0 19:37:54 10° N 19:41:22 51° NNE 19:41:22 51° NNE
Nadezhda 4 Rocket 4.1 19:37:21 10° N 19:43:28 52° ENE 19:43:40 52° E
Cosmos 2263 4.2 19:44:03 10° SSW 19:49:09 60° SE 19:49:09 60° SE
CZ-2C R/B 3.5 19:44:50 14° S 19:49:56 71° WSW 19:55:43 10° NNW
H-2A R/B 2.7 19:46:05 10° S 19:51:18 57° W 19:56:41 10° NNW
SL-08 RB Rocket 3.7 19:52:46 78° W 19:52:46 78° W 19:57:15 10° NNW
Okean 1-7 4.3 20:01:23 10° NNW 20:03:50 33° NNW 20:03:50 33° NNW
SJ 16-02 2.9 20:03:07 10° NNW 20:05:16 27° N 20:05:16 27° N
Cosmos 921 Rocket 4.4 20:06:07 10° SW 20:10:22 40° WNW 20:12:43 23° N
Meteor 1-19 Rocket 4.2 20:05:05 10° NNW 20:10:36 76° NNE 20:10:36 76° NNE
USA 234 3.1 20:14:46 75° ESE 20:15:24 90° SSW 20:22:00 10° WNW
MetOp-A 4.3 20:15:33 67° WSW 20:15:48 68° WSW 20:21:11 10° NNW
Cosmos 2297 Rocket 3.7 20:11:42 10° NNW 20:14:56 24° NNE 20:14:56 24° NNE
ARGOS 4.3 20:14:27 16° SSW 20:18:21 41° W 20:23:28 10° NNW
NOSS 3-2 (A) 4.4 20:14:26 10° NW 20:21:09 44° NNE 20:21:36 43° NE
Cosmos 1092 Rocket 4.5 20:15:24 10° N 20:20:06 48° NNE 20:20:06 48° NNE
Lacrosse 4 Rocket 3.6 20:20:02 10° W 20:23:26 22° NW 20:24:13 21° NNW
Meteor 1-25 Rocket 4.4 20:19:46 10° SSW 20:25:28 68° WNW 20:31:08 10° N
USA 229 DEB 3.9 20:19:40 10° WSW 20:26:15 65° NW 20:28:22 44° NNE
USA 229 3.9 20:19:47 10° WSW 20:26:21 65° NW 20:28:25 45° NNE
Resurs 01 Rocket 3.5 20:33:50 26° NNW 20:33:50 26° NNW 20:35:49 10° NNW
NOSS 3-1 (A) 3.7 20:27:28 10° SW 20:32:02 60° WSW 20:32:02 60° WSW
Cosmos 2227 Rocket 3.8 20:29:08 10° NNW 20:32:00 24° N 20:32:00 24° N
Cosmos 1943 Rocket 3.6 20:48:36 10° WSW 20:53:38 34° NW 20:55:04 29° NNW
CENTAUR R/B 3.7 20:53:12 10° NW 20:59:54 44° NNE 20:59:54 44° NNE
ATLAS 3B R/B 3.9 20:59:56 10° NW 21:04:54 32° N 21:04:54 32° N
Lacrosse 5 rocket 4.4 21:10:33 10° WNW 21:11:33 16° NW 21:11:33 16° NW
USA 238 DEB 4.5 21:09:41 10° NW 21:14:48 48° NNW 21:14:48 48° NNW
USA 238 4.5 21:09:47 10° NW 21:14:53 48° NNW 21:14:53 48° NNW
Cosmos 2369 Rocket 3.9 21:15:51 10° WSW 21:20:16 29° NW 21:20:16 29° NW
